{"data":{"norad_id":48220,"intl_designator":"2021-031L","name":"ONEWEB-0185","alt_names":[],"object_type":"PAYLOAD","status":"ACTIVE","operator":null,"country":"UK","launch_date":"2021-04-25","launch_site_code":"VOSTO","launch_vehicle":null,"mission":null,"orbit_class":"UNKNOWN","rcs_meters":null,"size_class":null,"mass_kg":null,"dimensions":null,"purposes":["comms"],"wikipedia_slug":null,"has_3d_model":false,"image_url":null,"decayed_at":null,"tle_current":{"epoch":"2026-05-24T22:13:07.588992Z","epoch_age_seconds":88443,"freshness":"FRESH","line1":"1 48220U 21031L   26144.92578228 -.00000221  00000+0 -63097-3 0  9997","line2":"2 48220  87.8953 294.3360 0002025 108.9876 251.1473 13.14502745245199","mean_motion":13.14502745,"eccentricity":0.0002025,"inclination_deg":87.8953,"raan_deg":294.336,"arg_perigee_deg":108.9876,"mean_anomaly_deg":251.1473,"bstar":-0.00063097,"rev_number":24519,"period_min":109.54712764788,"perigee_km":1204.2548208574,"apogee_km":1207.3263115217,"semimajor_km":7583.9275661896,"source":"CELESTRAK","updated_at":"2026-05-25T13:38:22.434174Z"}}}